Theta_e
347 348 347 345 344 343 341 340 339 339 339 339 338 338 337 338 339 339 339 340 342 345 347 348 350 348 347 347 346 346 349 348 347 347 345 345 345 344 344 346 343 343 342
347 344 345 343 342 341 340 339 338 337 336 336 336 338 338 337 338 339 337 339 342 344 346 348 350 350 347 347 346 346 347 347 347 347 345 344 344 344 344 343 343 342 343
346 345 341 340 340 340 342 340 339 338 336 335 335 336 337 339 339 339 339 338 341 343 343 347 350 348 346 345 345 344 346 347 347 346 345 345 344 344 343 343 342 341 342
343 341 339 337 338 339 337 336 336 334 333 334 334 335 337 339 340 341 340 340 344 345 345 346 348 348 348 345 344 344 344 345 345 345 345 345 345 343 342 342 343 342 342
341 338 337 337 340 337 335 335 335 335 334 334 334 336 338 338 340 339 340 344 347 348 347 346 344 345 345 346 344 344 344 343 344 344 345 345 345 344 343 343 342 342 342
339 338 336 339 339 336 335 336 337 337 336 335 333 334 338 338 340 341 342 344 348 348 349 348 347 343 343 345 344 344 343 343 343 343 344 344 344 344 344 344 343 341 342
341 339 337 333 336 336 340 340 338 338 336 337 334 335 336 339 340 341 343 344 344 346 347 347 346 344 344 342 343 343 342 342 342 342 342 342 343 344 345 344 343 342 342
342 341 339 338 338 339 341 341 339 337 337 338 334 336 329 334 337 340 342 343 344 344 344 345 344 345 345 344 343 341 341 341 341 342 342 341 342 344 345 344 342 343 342
344 343 345 343 341 343 340 341 341 340 337 338 339 337 328 326 333 337 339 341 343 342 343 344 343 344 345 344 341 341 339 341 341 341 342 342 342 343 343 343 342 342 342
346 346 347 346 345 343 345 343 342 342 341 337 335 339 337 336 328 326 334 336 339 339 341 341 341 342 343 343 341 339 337 337 340 340 342 343 342 341 342 343 343 342 342
350 348 350 348 346 345 346 345 343 341 340 338 336 335 336 335 333 329 326 329 333 336 338 338 339 340 341 341 340 339 334 334 336 337 339 340 343 342 342 342 342 342 340
347 350 350 349 349 348 346 345 344 343 341 340 340 339 335 332 330 329 329 331 331 334 335 337 337 338 339 339 337 334 331 331 330 332 335 338 339 341 343 342 341 340 340
342 349 350 350 348 348 348 346 344 342 341 339 341 337 338 335 338 335 333 331 329 333 333 335 337 339 339 339 339 334 332 329 327 327 329 332 335 338 340 341 342 340 340
343 352 349 350 349 348 347 345 343 343 343 342 341 337 336 337 336 334 333 331 328 328 330 331 336 338 338 339 337 332 335 328 325 324 325 327 330 332 334 335 336 336 335
343 347 347 347 347 347 347 346 345 345 344 343 338 337 335 337 334 337 336 335 330 323 324 329 329 330 334 336 335 338 338 327 327 323 323 324 326 328 328 328 329 329 331
344 344 345 347 348 348 348 349 347 347 345 340 337 338 340 335 335 335 335 334 332 328 323 330 331 329 331 332 333 338 336 328 324 322 323 323 323 323 324 324 325 327 327
343 343 345 346 347 348 349 348 344 345 340 336 337 336 336 338 336 334 334 333 331 330 326 327 326 329 329 331 333 334 334 337 334 321 322 321 318 318 320 321 322 323 324
343 343 345 346 348 348 348 345 342 341 336 334 337 339 337 335 337 336 334 334 332 332 329 327 324 326 327 331 329 329 331 333 335 324 321 318 316 316 317 318 318 320 318
342 343 345 346 347 347 345 342 344 341 340 341 339 337 338 336 335 334 334 333 332 330 327 328 324 327 325 326 325 328 328 329 330 322 317 316 315 316 316 316 315 315 314
342 344 345 346 347 345 344 343 342 340 339 334 335 339 337 336 335 335 334 333 331 329 326 328 325 323 323 323 325 322 322 326 325 326 321 320 317 315 315 315 316 315 312
342 344 345 345 345 344 341 342 338 336 333 336 337 336 337 334 326 330 333 333 332 327 324 328 323 321 321 321 321 323 322 323 325 326 324 325 325 325 321 317 321 317 312
343 344 344 344 343 340 311 315 328 335 336 336 335 335 335 324 323 315 317 318 322 326 329 327 324 320 320 322 322 321 321 320 318 326 323 321 325 323 323 325 316 312 309
342 342 344 343 342 339 307 309 315 336 336 336 335 333 331 332 326 330 313 312 313 312 318 332 326 324 321 322 325 324 323 322 323 323 325 319 324 322 325 323 311 308 307
342 342 341 339 334 321 303 303 310 337 336 335 335 334 332 331 330 328 326 325 325 329 330 330 332 328 327 327 323 323 325 321 323 322 326 318 321 319 324 323 308 308 305
337 337 334 330 322 315 301 303 321 334 332 332 332 332 332 331 308 306 323 322 325 324 309 308 311 309 305 308 317 325 322 323 318 319 324 323 321 318 321 322 322 308 305
332 326 326 330 319 321 299 302 320 330 328 326 327 328 306 323 299 301 323 321 320 322 323 323 323 314 316 316 308 331 326 321 319 319 325 323 320 321 317 322 328 326 325
Wind_Speed
8 8 7 7 8 7 8 8 8 8 8 9 9 9 9 9 8 6 5 7 10 11 12 13 13 10 10 8 9 9 10 11 11 11 11 12 14 14 15 16 16 15 15
8 8 8 9 9 8 8 8 7 7 7 8 9 10 10 9 9 8 6 6 10 12 12 14 13 11 11 10 10 9 10 10 11 11 11 13 14 14 15 16 17 16 15
10 9 8 8 8 6 8 8 8 7 7 8 9 9 9 10 9 9 8 8 7 12 12 13 13 11 11 11 12 11 11 11 11 10 11 12 13 14 14 16 16 15 15
11 11 10 10 9 7 7 8 7 7 8 8 7 7 7 7 9 9 8 8 7 7 8 13 12 13 12 12 13 12 11 11 11 10 11 11 13 14 13 14 15 15 13
15 12 9 7 9 7 7 8 7 8 7 7 7 7 7 7 8 6 8 9 9 7 6 5 7 8 11 13 14 13 11 10 12 12 12 12 13 13 13 14 15 14 14
13 10 7 6 11 7 8 7 9 7 6 7 6 6 6 6 6 6 8 7 8 9 9 8 6 7 9 13 15 14 13 11 12 13 13 13 13 14 14 14 14 13 14
11 12 8 8 7 7 9 9 8 9 7 5 4 5 7 8 8 7 7 7 8 8 7 7 6 6 6 11 12 14 15 13 12 14 14 14 13 13 13 14 13 14 12
11 11 10 8 8 11 11 9 10 7 7 7 4 2 4 5 6 7 6 6 7 5 7 8 8 8 7 6 7 8 13 14 14 13 14 13 13 12 12 13 13 13 10
12 15 14 10 12 11 9 11 11 12 7 7 9 3 4 5 3 3 7 6 6 6 7 8 8 8 7 6 6 7 9 11 15 13 13 13 13 13 12 13 13 12 11
14 16 12 13 12 10 10 10 10 10 9 8 5 8 5 2 4 3 4 5 5 5 4 4 5 6 6 6 7 7 6 9 12 11 12 13 15 14 13 12 11 11 11
15 14 15 15 12 11 11 11 11 12 9 8 8 6 10 7 5 5 7 5 5 5 4 5 4 4 5 6 6 6 7 7 8 9 9 13 12 12 12 12 12 11 12
9 13 15 13 14 11 13 10 11 12 11 10 9 8 9 7 7 7 8 6 6 4 3 4 4 3 3 4 5 3 5 5 7 8 9 9 10 11 12 13 13 13 16
9 13 15 14 12 12 12 10 11 11 11 11 13 9 6 6 2 4 6 5 5 3 3 3 2 2 2 3 3 6 5 5 7 7 8 8 8 10 11 12 12 14 15
11 10 13 13 13 13 11 10 8 9 10 11 13 8 5 4 5 5 6 5 5 5 3 3 1 1 1 2 1 5 6 3 6 7 7 8 8 9 9 11 10 13 18
11 11 13 12 13 12 11 11 8 10 10 10 8 8 6 6 5 6 5 5 5 5 5 4 3 3 1 2 3 6 5 6 6 8 9 8 9 8 10 9 10 13 17
12 11 12 12 13 11 11 12 10 10 10 7 6 10 9 6 7 5 5 5 5 5 4 0 2 1 1 3 4 5 4 3 4 6 8 8 8 9 11 12 14 16 18
13 13 13 13 12 12 13 12 10 10 10 9 7 9 9 8 7 6 5 5 5 4 5 4 1 1 2 4 4 3 4 4 6 4 5 6 8 9 13 15 16 17 14
12 13 13 12 12 13 14 13 11 10 10 9 11 10 10 7 8 7 6 6 5 4 4 5 3 3 2 5 4 4 4 3 4 5 5 6 9 12 14 16 14 15 15
14 14 14 14 15 15 14 11 12 11 11 11 11 11 10 10 9 7 7 6 5 4 3 4 5 2 2 2 3 5 5 5 5 8 7 6 8 13 13 13 14 15 15
15 15 14 15 15 15 14 13 12 10 9 8 8 9 9 11 10 10 8 7 6 5 5 5 5 5 2 2 3 4 4 3 3 4 6 6 7 8 13 12 13 13 13
14 14 15 14 14 13 11 13 10 10 9 9 8 8 8 9 8 8 7 8 8 6 5 7 6 4 3 4 5 2 5 4 4 2 3 3 5 5 5 8 11 13 13
15 16 16 16 15 10 13 13 11 8 10 9 8 7 7 8 8 8 7 8 9 9 9 7 6 8 6 4 5 7 6 6 3 2 2 2 2 3 4 4 9 11 11
16 17 16 15 14 12 14 14 12 9 8 7 7 6 6 6 8 9 6 6 5 3 4 8 7 8 6 6 8 8 9 8 4 3 5 2 1 3 3 4 9 10 10
16 15 14 14 13 8 12 13 11 9 7 6 6 7 7 8 9 9 8 7 7 8 7 6 6 8 7 8 8 6 8 6 5 3 1 3 1 1 3 3 6 8 9
14 14 14 13 12 8 10 13 11 8 8 7 6 6 6 7 8 9 9 7 7 6 6 6 5 8 12 12 9 8 8 9 5 3 2 3 2 2 1 4 5 6 6
14 11 11 11 12 13 8 10 10 7 9 6 6 6 5 4 9 10 8 8 7 7 7 7 7 7 9 9 7 7 9 7 5 4 3 4 4 3 3 2 5 6 7
Wind_Direction
200 202 210 212 211 208 212 218 223 224 226 232 240 244 245 245 249 252 255 224 245 252 250 250 240 237 237 230 240 229 214 210 214 219 215 213 212 212 212 202 199 198 198
211 210 205 218 218 212 215 222 218 225 230 234 238 243 248 251 249 252 251 253 229 246 250 248 235 226 234 235 235 238 219 211 212 215 211 210 216 207 212 212 202 203 206
211 218 225 219 233 229 229 221 220 219 231 233 240 246 248 248 251 251 250 252 239 227 251 249 231 223 235 237 236 228 227 213 216 213 209 206 208 208 207 213 218 214 210
211 211 213 218 204 207 229 230 223 221 230 233 233 236 240 245 249 248 245 246 239 253 230 241 231 224 224 233 234 237 225 213 215 214 209 204 204 210 208 207 218 223 216
216 209 206 208 211 195 216 234 229 224 224 235 239 238 237 242 243 240 238 241 242 245 250 225 235 226 226 231 235 235 237 219 214 213 208 205 203 207 208 216 220 219 215
218 218 198 203 219 184 207 210 228 218 233 238 237 241 246 242 246 240 240 239 244 249 247 252 240 238 230 238 235 235 235 226 223 218 209 204 206 205 208 217 224 220 217
208 191 185 164 224 243 211 194 212 226 223 219 232 241 252 241 240 237 243 242 248 243 241 241 248 255 238 226 243 236 236 236 228 225 209 198 206 207 206 216 221 224 226
191 190 192 213 189 217 207 193 201 211 225 195 215 234 260 207 224 226 232 235 240 239 242 240 252 248 248 247 242 235 235 238 235 232 213 198 201 207 206 211 220 224 219
188 198 195 187 200 211 201 195 202 210 216 199 200 205 200 232 203 179 217 235 243 245 255 248 241 243 238 241 246 234 240 240 237 233 206 198 201 205 210 209 219 220 216
197 208 192 203 205 209 202 196 201 210 210 209 199 227 249 275 219 188 213 221 230 228 222 227 229 233 240 244 249 264 257 247 233 230 208 200 208 208 207 207 208 215 209
206 203 203 202 198 209 208 192 196 204 202 211 212 180 221 234 248 257 248 197 213 223 216 231 235 237 241 254 254 250 229 240 221 212 201 204 212 207 201 202 207 203 193
224 215 206 203 205 198 210 192 201 201 201 208 210 196 188 199 200 215 246 241 246 182 211 226 232 245 257 252 248 271 232 225 214 196 180 198 205 191 195 197 189 187 177
214 213 203 202 199 193 204 188 193 199 198 206 206 204 191 208 161 213 243 244 251 173 204 227 242 235 240 229 227 224 198 224 218 197 186 187 189 190 195 191 185 178 176
224 207 204 201 195 189 186 178 192 200 197 206 206 194 195 191 194 202 229 226 219 211 202 256 115 216 220 228 65 193 184 192 191 177 174 185 187 192 182 181 176 173 167
225 206 195 190 191 185 169 175 190 190 193 196 190 185 198 202 200 222 210 221 248 247 220 146 203 54 324 204 158 198 190 138 169 160 173 179 179 173 173 149 139 144 140
209 194 187 185 185 164 171 178 180 184 187 183 180 189 195 187 194 196 207 206 222 256 245 194 135 83 202 200 189 220 179 161 150 157 168 169 156 163 148 140 136 139 142
197 196 188 183 168 168 175 175 178 174 186 170 175 188 187 185 187 184 194 199 200 215 234 127 100 144 160 167 152 160 184 188 145 141 163 139 140 136 141 144 148 141 146
196 187 185 183 169 173 173 173 173 177 166 173 184 188 186 179 182 181 191 194 198 192 212 166 161 161 166 124 122 134 141 138 143 127 146 129 137 137 144 147 149 146 147
188 184 181 176 172 172 169 170 179 175 181 185 178 187 183 183 185 183 194 191 189 177 183 188 143 156 100 152 118 100 100 101 84 97 97 111 147 145 144 155 148 148 143
182 179 176 174 171 167 169 170 173 171 163 167 173 187 187 192 192 189 191 194 183 172 180 191 168 151 137 141 139 130 116 100 89 82 70 92 144 140 148 148 146 137 141
179 169 165 167 167 166 169 165 163 153 157 173 176 192 196 200 194 196 191 187 179 168 185 192 169 156 158 166 161 142 131 115 77 80 86 93 121 137 149 152 150 149 157
168 162 163 166 164 168 137 138 143 154 172 172 180 187 190 183 187 178 177 166 169 180 197 188 174 186 169 152 154 157 140 149 134 104 97 70 99 119 141 167 160 159 167
158 159 160 160 160 150 144 139 145 163 163 172 180 187 196 197 189 184 158 168 190 205 227 187 189 184 164 159 156 170 170 170 141 132 136 93 65 102 151 146 161 160 167
152 151 151 145 138 122 135 134 145 153 152 165 180 179 177 170 178 177 169 172 183 188 202 213 206 177 160 162 155 145 144 106 102 93 208 115 142 125 128 135 157 171 180
139 140 134 131 119 121 132 136 148 153 148 159 161 165 167 166 155 157 156 156 151 135 61 64 104 143 135 143 149 154 155 164 151 145 190 123 146 94 133 165 172 177 193
128 115 111 124 123 133 135 135 153 149 145 141 125 125 55 163 150 165 154 145 147 150 144 127 128 112 140 145 171 204 172 178 158 163 169 138 143 154 158 186 198 182 196